Regional Weather Roundup
Issued by NWS Green Bay, WI

Home | Current Version | Previous Version | Graphics & Text | Print | Product List | Glossary Off
Versions: 1 2 3 4 5 6 7 8 9 10 11 12 13 14 15 16 17 18 19 20 21 22 23 24 25 26 27 28 29 30 31 32 33 34 35 36 37 38 39 40 41 42 43 44 45 46 47 48 49 50

000
ASUS43 KGRB 272011
RWRGRB

NORTH-CENTRAL AND NORTHEAST WISCONSIN REGIONAL WEATHER ROUNDUP
NATIONAL WEATHER SERVICE GREEN BAY WI
300 PM CDT WED JUL 27 2016

WIZ005-009-010>012-018-019-272100-
NORTH CENTRAL WISCONSIN

CITY           SKY/WX    TMP DP  RH WIND       PRES   REMARKS
IRONWOOD       CLOUDY    72  68  88 NE6       29.99F
MANITOWISH WTR RAIN      71  68  90 CALM      30.03S
ARBOR VITAE    LGT RAIN  72  67  84 CALM      30.03S
EAGLE RIVER    DRIZZLE   70  64  79 NW5       30.02F
LAND O LAKES   LGT RAIN  70  67  90 CALM      30.04S
RHINELANDER    CLOUDY    72  65  78 CALM      30.03S
PHILLIPS       RAIN      69  66  92 NE3       30.02R
ANTIGO         CLOUDY    72  67  83 CALM      30.02F
TOMAHAWK       RAIN      71  66  85 CALM      30.02F
MERRILL        CLOUDY    73  69  85 CALM      30.01S
$$

WIZ013-073-272100-
NORTHEAST WISCONSIN

CITY           SKY/WX    TMP DP  RH WIND       PRES   REMARKS
IRON MOUNTAIN  CLOUDY    73  64  73 NW5       29.99S
MARINETTE      CLOUDY   N/A N/A N/A CALM        N/A
OCONTO         CLOUDY    76  69  78 NW3       29.96S
$$

WIZ017-030-035>037-045-272100-
CENTRAL WISCONSIN

CITY           SKY/WX    TMP DP  RH WIND       PRES   REMARKS
MEDFORD        CLOUDY    74  69  86 CALM      29.99F
WAUSAU         MOSUNNY   77  68  73 CALM      29.98F
MOSINEE        NOT AVBL
MARSHFIELD     LGT RAIN  82  69  64 S8        29.98F
WISC RAPIDS    CLOUDY    81  66  60 S8        29.99F
STEVENS POINT  CLOUDY    79  67  66 S5        29.99F
WAUPACA        PTSUNNY   79  67  64 S3        29.99F
SHAWANO        CLOUDY    79  65  62 CALM      29.98F
CLINTONVILLE   CLOUDY    77  63  61 S5        29.98S
WAUTOMA        LGT RAIN  73  66  78 CALM      30.00F
$$

WIZ038-039-048-051-272100-
FOX VALLEY

CITY           SKY/WX    TMP DP  RH WIND       PRES   REMARKS
NWS GREEN BAY  MOSUNNY   77  70  79 CALM      29.97F
APPLETON       CLOUDY    75  61  60 VRB6      29.98S
OSHKOSH        PTSUNNY   75  69  81 SE6       29.99S
FOND DU LAC    LGT RAIN  75  69  81 E7        30.00R
$$

WIZ022-050-052-272100-
EAST CENTRAL WISCONSIN

CITY           SKY/WX    TMP DP  RH WIND       PRES   REMARKS
EPHRAIM        FAIR      74  66  77 NW5       29.95F
WASHINGTON ISL NOT AVBL
STURGEON BAY   CLOUDY    77  64  64 NW6       29.97F
MANITOWOC      LGT RAIN  76  65  68 S6        29.98F
SHEBOYGAN      LGT RAIN  70  67  90 SW6       30.00F
$$

LMZ563-521-522-541>543-272100-
LAKESHORE

STATION/POSITION TIME  TEMP    WIND        PRES    VSBY  WAVE
                       AIR SEA DIR/SP/G                  HT/PER
                 (UTC) (F)     (DEG/KT/KT) (MB)    (MI)  (FT/S)
SHEBOYGAN LKSHOR 2000   71     260/  1/  1 1015.7F
KEWAUNEE LKSHORE 1900   81      80/  5/  7 1014.5F
ALGOMA MARINA    1913          330/  6/  8   N/A
NORTHPORT PIER   1900   74     310/  9/ 12 1014.9F
N MID LAKE BUOY  1950   71 71  280/  6/  8 1013.3F         1
S GREEN BAY BUOY 1930   72 75  320/  2/  2   N/A
SISTER BAY LKSHO 1921   76     360/  6/  6   N/A
CHAMBERS ISLAND  1900   76     270/  2/  6 1014.9F
MENOMINEE LKSHOR 1900   74     360/  3/  4 1014.0F
$$



USA.gov is the U.S. government's official web portal to all federal, state and local government web resources and services.